User: anonymous
Location: Albany
(35.0000°S, 118.0000°E)
Time: 05:05:47
(UTC-04:00)
Language:

Cosmos 1346 Rocket - Orbit

View from above orbital plane
View from above orbital plane
View from above satellite
View from above satellite

Ground track
Ground track

The orbit data is extracted from the following two-line orbital elements,

1 13121U 82027B   14237.38972966  .00001414  00000-0  96669-4 0  4719
2 13121 081.1672 216.9154 0027231 319.1813 040.7369 15.05244925762308
Epoch (UTC): 25 August 2014 09:21:12
Eccentricity: 0.0027231
inclination: 81.1672°
perigee height: 532 km
apogee height: 569 km
right ascension of ascending node: 216.9154°
argument of perigee: 319.1813°
revolutions per day: 15.05244925
mean anomaly at epoch: 40.7369°
orbit number at epoch: 76230

The dashed part of the orbit path shows where the satellite is in the earth's shadow,  

DLR